• In India
  • List of Countries
  • For 7 days
  • Water Temperature
  • Satellite Maps
  • Weather Map
  • Weather Widgets
  • user-avatar
    Login

    Hourly Weather Prutz

    Today, 21 February, Wednesday

    Time Temperature Precipitation Wind Pressure Humidity
    00:00 -11°C° 0.1 mm 1 mps 625 mmHg 94%
    01:00 -11°C° 0.1 mm 1 mps 625 mmHg 94%
    02:00 -12°C° 0 mm 1 mps 625 mmHg 94%
    03:00 -12°C° 0 mm 1 mps 625 mmHg 93%
    04:00 -13°C° 0 mm 1 mps 625 mmHg 92%
    05:00 -13°C° 0 mm 1 mps 625 mmHg 92%
    06:00 -13°C° 0 mm 1 mps 625 mmHg 92%
    07:00 -13°C° 0 mm 1 mps 625 mmHg 91%
    08:00 -13°C° 0.1 mm 2 mps 625 mmHg 89%
    09:00 -10°C° 0.1 mm 2 mps 626 mmHg 86%
    10:00 -9°C° 0.1 mm 2 mps 626 mmHg 84%
    11:00 -7°C° 0.1 mm 2 mps 626 mmHg 82%
    12:00 -6°C° 0.1 mm 2 mps 627 mmHg 81%
    13:00 -5°C° 0.1 mm 2 mps 627 mmHg 79%
    14:00 -5°C° 0.1 mm 2 mps 626 mmHg 81%
    15:00 -5°C° 0.1 mm 2 mps 626 mmHg 83%
    16:00 -5°C° 0.1 mm 2 mps 626 mmHg 85%
    17:00 -7°C° 0.1 mm 2 mps 626 mmHg 88%
    18:00 -8°C° 0.1 mm 2 mps 626 mmHg 91%
    19:00 -9°C° 0.1 mm 2 mps 625 mmHg 94%
    20:00 -10°C° 0.1 mm 2 mps 625 mmHg 94%
    21:00 -10°C° 0.1 mm 1 mps 625 mmHg 94%
    22:00 -10°C° 0.1 mm 1 mps 625 mmHg 94%
    23:00 -11°C° 0.1 mm 1 mps 625 mmHg 93%

    Tomorrow, 22 February, Thursday

    Time Temperature Precipitation Wind Pressure Humidity
    00:00 -11°C° 0.1 mm 1 mps 624 mmHg 92%
    01:00 -12°C° 0.1 mm 1 mps 624 mmHg 91%
    02:00 -12°C° 0 mm 1 mps 624 mmHg 90%
    03:00 -12°C° 0 mm 1 mps 623 mmHg 89%
    04:00 -12°C° 0 mm 1 mps 623 mmHg 88%
    05:00 -12°C° 0 mm 1 mps 623 mmHg 88%
    06:00 -11°C° 0 mm 1 mps 623 mmHg 88%
    07:00 -11°C° 0 mm 1 mps 623 mmHg 87%
    08:00 -10°C° 0.1 mm 1 mps 623 mmHg 86%
    09:00 -8°C° 0.1 mm 1 mps 624 mmHg 85%
    10:00 -7°C° 0.1 mm 1 mps 624 mmHg 83%
    11:00 -7°C° 0.1 mm 2 mps 625 mmHg 83%
    12:00 -5°C° 0.1 mm 2 mps 625 mmHg 83%
    13:00 -4°C° 0.1 mm 2 mps 625 mmHg 82%
    14:00 -4°C° 0.1 mm 2 mps 625 mmHg 84%
    15:00 -4°C° 0.1 mm 2 mps 625 mmHg 85%
    16:00 -4°C° 0.1 mm 2 mps 624 mmHg 86%
    17:00 -6°C° 0.1 mm 2 mps 624 mmHg 89%
    18:00 -6°C° 0.1 mm 1 mps 624 mmHg 91%
    19:00 -7°C° 0.1 mm 1 mps 624 mmHg 93%
    20:00 -7°C° 0 mm 1 mps 624 mmHg 93%
    21:00 -8°C° 0 mm 1 mps 624 mmHg 92%
    22:00 -9°C° 0 mm 1 mps 624 mmHg 92%
    23:00 -9°C° 0 mm 1 mps 624 mmHg 91%

    Day after tomorrow, 23 February, Friday

    Time Temperature Precipitation Wind Pressure Humidity
    00:00 -9°C° 0 mm 1 mps 624 mmHg 89%
    01:00 -9°C° 0 mm 1 mps 624 mmHg 88%
    02:00 -9°C° 0 mm 1 mps 623 mmHg 87%
    03:00 -9°C° 0 mm 1 mps 623 mmHg 86%
    04:00 -10°C° 0 mm 1 mps 623 mmHg 85%
    05:00 -10°C° 0 mm 1 mps 623 mmHg 84%
    06:00 -10°C° 0 mm 1 mps 623 mmHg 84%
    07:00 -10°C° 0 mm 1 mps 623 mmHg 83%
    08:00 -8°C° 0 mm 1 mps 624 mmHg 82%
    09:00 -6°C° 0 mm 1 mps 624 mmHg 80%
    10:00 -3°C° 0 mm 1 mps 625 mmHg 79%
    11:00 -2°C° 0.1 mm 1 mps 625 mmHg 80%
    12:00 -1°C° 0.1 mm 1 mps 626 mmHg 81%
    13:00 0°C° 0.1 mm 1 mps 626 mmHg 83%
    14:00 0°C° 0.1 mm 1 mps 626 mmHg 84%
    15:00 0°C° 0.1 mm 1 mps 626 mmHg 85%
    16:00 0°C° 0.1 mm 1 mps 626 mmHg 87%
    17:00 -2°C° 0 mm 1 mps 626 mmHg 89%
    18:00 -3°C° 0 mm 1 mps 625 mmHg 90%
    19:00 -4°C° 0 mm 1 mps 625 mmHg 92%
    20:00 -4°C° 0 mm 1 mps 625 mmHg 90%
    21:00 -6°C° 0 mm 2 mps 626 mmHg 87%
    22:00 -6°C° 0 mm 2 mps 626 mmHg 85%
    23:00 -6°C° 0 mm 2 mps 626 mmHg 83%

    24 February, Saturday

    Time Temperature Precipitation Wind Pressure Humidity
    00:00 -6°C° 0 mm 2 mps 626 mmHg 81%
    01:00 -6°C° 0 mm 2 mps 626 mmHg 80%
    02:00 -6°C° 0 mm 2 mps 626 mmHg 79%
    03:00 -6°C° 0 mm 2 mps 626 mmHg 79%
    04:00 -6°C° 0 mm 2 mps 626 mmHg 79%
    05:00 -6°C° 0 mm 2 mps 626 mmHg 79%
    06:00 -4°C° 0 mm 1 mps 626 mmHg 79%
    07:00 -4°C° 0 mm 1 mps 626 mmHg 80%
    08:00 -2°C° 0 mm 1 mps 627 mmHg 81%
    09:00 0°C° 0 mm 1 mps 627 mmHg 82%
    10:00 +1°C° 0 mm 1 mps 628 mmHg 83%
    11:00 +2°C° 0 mm 1 mps 628 mmHg 86%
    12:00 +2°C° 0 mm 1 mps 628 mmHg 89%
    13:00 +3°C° 0 mm 1 mps 628 mmHg 91%
    14:00 +2°C° 0 mm 1 mps 628 mmHg 92%
    15:00 +2°C° 0 mm 1 mps 628 mmHg 93%
    16:00 +2°C° 0 mm 1 mps 628 mmHg 93%
    17:00 +1°C° 0.1 mm 1 mps 628 mmHg 94%
    18:00 0°C° 0.1 mm 1 mps 628 mmHg 95%
    19:00 -1°C° 0.1 mm 1 mps 628 mmHg 95%
    20:00 -2°C° 0.1 mm 1 mps 628 mmHg 95%
    21:00 -2°C° 0.1 mm 1 mps 628 mmHg 96%
    22:00 -3°C° 0.1 mm 1 mps 628 mmHg 96%
    23:00 -3°C° 0.1 mm 1 mps 628 mmHg 96%

    25 February, Sunday

    Time Temperature Precipitation Wind Pressure Humidity
    00:00 -3°C° 0.1 mm 1 mps 628 mmHg 95%
    01:00 -4°C° 0.1 mm 1 mps 628 mmHg 95%
    02:00 -4°C° 0.1 mm 1 mps 627 mmHg 95%
    03:00 -6°C° 0.1 mm 1 mps 627 mmHg 95%
    04:00 -6°C° 0.1 mm 1 mps 627 mmHg 95%
    05:00 -8°C° 0.1 mm 2 mps 627 mmHg 95%
    06:00 -8°C° 0.1 mm 2 mps 627 mmHg 95%
    07:00 -9°C° 0.1 mm 2 mps 627 mmHg 94%
    08:00 -9°C° 0.1 mm 2 mps 627 mmHg 92%
    09:00 -8°C° 0.1 mm 2 mps 628 mmHg 91%
    10:00 -9°C° 0.1 mm 3 mps 628 mmHg 89%
    11:00 -9°C° 0.1 mm 3 mps 628 mmHg 87%
    12:00 -9°C° 0.1 mm 3 mps 628 mmHg 86%
    13:00 -9°C° 0.1 mm 3 mps 628 mmHg 84%
    14:00 -9°C° 0.1 mm 3 mps 628 mmHg 84%
    15:00 -10°C° 0.1 mm 3 mps 628 mmHg 84%
    16:00 -12°C° 0.1 mm 3 mps 628 mmHg 84%
    17:00 -14°C° 0 mm 3 mps 628 mmHg 87%
    18:00 -16°C° 0 mm 3 mps 627 mmHg 89%
    19:00 -17°C° 0 mm 2 mps 627 mmHg 92%
    20:00 -18°C° 0 mm 2 mps 627 mmHg 92%
    21:00 -19°C° 0 mm 2 mps 627 mmHg 91%
    22:00 -18°C° 0 mm 1 mps 627 mmHg 91%
    23:00 -19°C° 0 mm 1 mps 627 mmHg 89%

    26 February, Monday

    Time Temperature Precipitation Wind Pressure Humidity
    00:00 -19°C° 0 mm 1 mps 626 mmHg 87%
    01:00 -20°C° 0 mm 1 mps 626 mmHg 85%
    02:00 -20°C° 0 mm 1 mps 626 mmHg 82%
    03:00 -21°C° 0 mm 1 mps 626 mmHg 79%
    04:00 -21°C° 0 mm 1 mps 625 mmHg 75%
    05:00 -22°C° 0 mm 1 mps 625 mmHg 74%
    06:00 -22°C° 0 mm 1 mps 625 mmHg 72%
    07:00 -22°C° 0 mm 1 mps 625 mmHg 70%
    08:00 -20°C° 0 mm 1 mps 626 mmHg 69%
    09:00 -19°C° 0 mm 2 mps 627 mmHg 67%
    10:00 -17°C° 0 mm 2 mps 628 mmHg 65%
    11:00 -16°C° 0 mm 2 mps 628 mmHg 65%
    12:00 -15°C° 0 mm 2 mps 627 mmHg 65%
    13:00 -15°C° 0 mm 3 mps 627 mmHg 65%
    14:00 -15°C° 0 mm 3 mps 627 mmHg 68%
    15:00 -16°C° 0 mm 3 mps 627 mmHg 72%
    16:00 -16°C° 0 mm 3 mps 626 mmHg 75%
    17:00 -17°C° 0 mm 2 mps 626 mmHg 80%
    18:00 -18°C° 0 mm 2 mps 625 mmHg 85%
    19:00 -20°C° 0 mm 2 mps 625 mmHg 90%
    20:00 -19°C° 0 mm 1 mps 625 mmHg 90%
    21:00 -20°C° 0 mm 1 mps 625 mmHg 90%
    22:00 -21°C° 0 mm 1 mps 624 mmHg 90%
    23:00 -21°C° 0 mm 1 mps 624 mmHg 88%
    Show more